Temp
81 80 80 83 85 84 83 82 78 74 77 83 82 84 84 85 83 82 81 76 70 69 67 67 67 67 68 69 69 69 70 70 71 72 72 74 76 78
83 80 79 83 83 84 83 82 81 78 74 82 83 84 83 82 81 80 81 74 72 69 68 67 67 67 67 68 68 68 68 68 69 69 70 71 72 74
80 79 78 79 81 84 84 82 81 81 76 80 83 84 80 79 80 81 81 81 83 71 69 67 66 66 67 67 67 67 67 67 67 68 69 69 70 71
79 79 78 81 78 77 81 78 79 79 78 72 77 79 79 80 79 78 79 83 82 77 69 67 66 65 65 65 64 64 64 65 65 66 66 68 69 70
80 79 79 79 78 80 79 80 82 79 79 76 74 79 79 81 79 78 78 79 82 76 69 69 67 66 64 63 63 62 62 62 62 62 63 64 66 68
80 80 81 80 79 78 78 77 77 76 76 77 77 75 76 75 73 73 75 82 81 85 79 74 72 71 66 64 64 63 61 60 60 60 60 60 62 64
80 81 82 80 74 73 79 78 76 76 78 77 76 76 74 72 70 78 76 78 78 81 81 82 83 83 82 72 71 69 65 62 60 59 58 58 58 60
79 80 81 74 71 67 67 66 68 70 70 71 74 70 69 72 76 74 73 72 71 81 77 77 81 79 81 82 74 69 67 65 61 60 59 58 57 58
76 75 75 72 74 77 69 65 65 64 64 69 68 70 70 72 71 66 67 69 69 74 73 71 78 76 80 83 69 66 63 62 62 61 60 59 57 56
69 69 67 67 71 73 73 75 75 76 74 74 72 72 73 73 70 69 67 64 67 71 72 65 72 75 79 80 70 67 64 63 62 61 60 59 56 54
66 67 67 66 66 63 71 72 73 74 72 63 62 62 61 61 63 68 66 63 64 70 76 71 74 74 74 72 71 65 63 61 60 60 60 58 55 53
64 64 61 60 61 59 69 71 70 73 74 73 72 69 65 70 62 66 65 61 63 68 75 71 70 64 54 62 68 70 69 63 59 58 58 58 54 67
64 63 68 59 55 54 55 70 68 66 67 70 73 76 76 76 76 73 72 72 69 69 73 67 60 56 54 53 59 63 65 66 70 66 54 55 53 60
70 77 71 55 52 53 57 57 56 56 70 73 74 73 74 74 75 74 71 70 72 68 69 65 56 54 53 53 55 62 64 67 66 65 68 65 52 53
72 57 54 52 51 54 54 56 54 69 72 71 71 72 73 74 71 72 73 72 72 72 72 68 60 56 55 54 56 57 58 61 63 68 67 75 71 67
58 70 64 60 57 57 62 61 69 72 70 69 70 71 72 72 72 73 71 72 70 69 71 70 62 58 55 57 58 57 59 57 65 71 72 72 74 73
70 74 72 72 72 71 72 72 71 71 69 70 69 69 70 70 70 72 70 70 67 63 66 69 66 59 58 56 54 54 54 60 63 67 64 64 67 70
67 72 73 73 72 72 71 70 70 66 69 68 68 69 68 68 68 69 70 67 63 64 64 65 58 56 55 58 57 54 54 56 66 67 65 63 63 68
70 74 72 72 70 71 70 70 69 69 65 67 67 67 68 68 67 67 67 66 65 64 58 62 55 52 49 50 56 55 52 54 56 63 65 69 67 64
72 72 72 71 70 69 69 68 68 68 68 67 67 68 68 67 67 66 67 65 63 59 55 58 55 52 49 50 51 54 51 53 53 54 65 69 65 62
74 72 72 71 70 69 67 66 64 66 64 65 67 67 68 68 67 67 67 57 57 65 60 57 52 54 54 56 51 51 52 52 53 53 54 63 65 64
74 70 71 70 68 66 65 65 65 66 67 67 67 67 67 68 68 67 68 67 67 66 62 63 53 52 51 51 49 49 49 52 54 53 53 52 52 62
71 70 70 68 67 65 65 66 67 68 68 67 67 67 67 67 68 68 68 69 69 66 66 53 49 51 49 49 50 49 49 48 49 49 50 52 52 52
MSLP
1018.03 1018.26 1018.29 1017.82 1017.56 1017.53 1017.65 1017.50 1017.27 1016.64 1016.06 1015.93 1016.34 1016.80 1017.27 1017.07 1017.15 1017.37 1017.18 1017.10 1017.35 1017.42 1017.37 1017.35 1017.22 1017.10 1017.01 1016.94 1016.73 1016.48 1016.23 1016.00 1015.87 1015.67 1015.58 1015.61 1015.51 1015.48
1017.78 1017.97 1018.20 1017.69 1017.59 1017.53 1017.50 1017.33 1017.14 1016.93 1016.30 1016.19 1015.99 1016.14 1016.48 1016.90 1016.99 1017.01 1016.75 1016.88 1016.64 1016.55 1016.62 1016.55 1016.47 1016.51 1016.41 1016.24 1016.18 1016.04 1015.77 1015.56 1015.39 1015.24 1015.02 1014.94 1015.00 1014.98
1017.70 1017.84 1017.89 1018.05 1017.67 1017.16 1017.00 1017.44 1016.91 1016.73 1016.16 1015.76 1015.88 1015.84 1016.07 1016.36 1016.17 1016.21 1016.13 1015.87 1015.39 1015.23 1015.35 1015.60 1015.60 1015.64 1015.61 1015.51 1015.43 1015.30 1015.17 1014.92 1014.78 1014.63 1014.43 1014.28 1014.24 1014.28
1017.37 1017.47 1017.53 1017.39 1017.47 1017.68 1017.38 1017.02 1016.81 1016.89 1016.75 1016.03 1015.87 1015.78 1015.62 1015.48 1015.43 1015.58 1015.51 1015.12 1014.76 1014.40 1014.64 1014.77 1014.64 1014.48 1014.42 1014.49 1014.50 1014.37 1014.25 1014.11 1013.93 1013.93 1013.78 1013.55 1013.48 1013.46
1016.59 1016.88 1016.94 1016.87 1016.95 1016.77 1016.88 1016.59 1016.14 1016.33 1016.14 1016.26 1015.84 1015.50 1015.26 1015.00 1014.68 1014.85 1014.72 1014.35 1014.15 1013.59 1013.32 1013.42 1013.26 1013.34 1013.34 1013.23 1013.20 1013.17 1013.06 1012.99 1012.97 1012.92 1012.92 1012.80 1012.69 1012.66
1016.19 1016.11 1016.23 1016.34 1016.32 1016.37 1016.43 1016.33 1016.41 1016.38 1016.10 1015.84 1015.18 1015.31 1014.99 1014.55 1014.20 1014.04 1013.70 1012.93 1012.67 1012.48 1012.20 1011.99 1011.89 1011.89 1011.85 1011.68 1011.52 1011.67 1011.68 1011.52 1011.50 1011.55 1011.61 1011.67 1011.74 1011.71
1015.61 1015.67 1015.70 1015.75 1015.85 1016.15 1016.15 1015.84 1015.97 1016.06 1015.46 1015.02 1014.55 1014.34 1014.21 1013.98 1014.03 1013.57 1013.21 1012.62 1012.47 1012.14 1011.50 1011.01 1010.33 1009.97 1009.77 1009.91 1009.87 1009.71 1009.75 1009.86 1010.04 1010.07 1010.17 1010.30 1010.48 1010.59
1014.93 1015.30 1015.33 1015.66 1015.85 1015.93 1016.01 1016.13 1016.20 1016.11 1015.78 1015.48 1014.62 1014.38 1014.55 1014.31 1013.83 1013.46 1013.17 1012.76 1011.64 1011.84 1011.12 1010.47 1010.14 1009.24 1008.96 1008.66 1008.41 1008.40 1008.40 1008.40 1008.45 1008.48 1008.58 1008.79 1009.06 1009.27
1014.87 1015.36 1015.60 1015.66 1015.38 1015.29 1015.28 1015.62 1015.67 1015.75 1015.66 1015.50 1015.12 1014.54 1014.22 1014.08 1013.97 1013.98 1013.74 1013.06 1012.29 1011.72 1011.48 1009.98 1009.56 1008.48 1008.15 1007.28 1007.07 1007.16 1007.14 1006.98 1006.94 1006.99 1007.05 1007.26 1007.45 1007.88
1014.55 1014.88 1015.57 1015.74 1015.49 1015.15 1015.18 1014.92 1014.73 1014.50 1014.41 1014.53 1014.33 1014.34 1014.27 1014.10 1014.25 1013.92 1013.47 1013.23 1012.63 1011.61 1010.83 1009.19 1008.82 1007.33 1006.85 1006.32 1006.20 1005.84 1005.55 1005.19 1005.09 1005.14 1005.36 1005.61 1005.91 1006.34
1014.17 1014.20 1014.53 1015.27 1015.43 1015.53 1015.20 1014.58 1014.18 1013.82 1013.47 1014.00 1014.38 1014.53 1014.48 1014.09 1014.06 1013.68 1012.79 1012.20 1011.27 1010.18 1009.23 1007.90 1007.49 1006.78 1006.56 1005.26 1005.03 1004.33 1003.73 1003.29 1003.11 1003.21 1003.50 1003.93 1004.40 1004.97
1013.60 1013.71 1013.88 1014.44 1015.09 1015.28 1015.15 1014.34 1013.87 1013.38 1013.25 1013.51 1013.71 1013.51 1013.07 1012.40 1012.53 1012.55 1012.17 1011.50 1010.54 1008.94 1008.02 1007.74 1007.28 1007.38 1005.53 1004.79 1003.59 1002.53 1001.89 1001.07 1000.90 1001.20 1001.68 1002.28 1002.98 1003.66
1013.11 1013.41 1013.47 1013.51 1014.28 1014.89 1014.97 1014.19 1013.96 1013.93 1013.84 1013.48 1012.71 1011.90 1011.38 1010.97 1010.70 1010.69 1010.81 1010.42 1009.44 1008.53 1007.84 1008.09 1007.40 1006.85 1006.24 1003.84 1002.34 1001.51 1000.86 1000.12 999.42 999.59 1000.13 1000.58 1001.34 1002.19
1011.98 1011.51 1012.71 1013.66 1014.17 1014.63 1014.73 1014.39 1014.22 1014.18 1013.33 1012.24 1011.67 1011.17 1010.70 1010.49 1010.32 1010.32 1010.39 1010.02 1009.44 1008.89 1007.93 1007.74 1007.32 1006.51 1004.74 1002.94 1001.18 999.93 999.59 998.97 998.84 998.67 998.38 998.45 999.91 1000.67
1011.80 1012.43 1012.68 1013.39 1014.08 1014.29 1014.15 1013.98 1013.93 1013.28 1012.13 1011.77 1011.23 1010.85 1010.62 1010.63 1010.57 1009.92 1009.16 1008.59 1008.05 1007.48 1007.05 1006.82 1006.45 1005.24 1003.75 1001.94 1000.10 999.18 998.77 998.01 997.73 997.11 996.88 996.20 997.28 998.95
1011.93 1011.98 1012.58 1013.17 1013.24 1013.36 1013.22 1013.41 1012.90 1012.22 1012.10 1011.84 1011.29 1010.92 1010.56 1010.18 1009.65 1009.13 1008.45 1007.74 1007.04 1006.65 1006.14 1005.60 1005.32 1004.48 1002.52 1000.84 999.80 998.84 997.84 997.01 995.70 994.55 994.70 994.90 995.83 997.15
1011.14 1011.31 1011.52 1011.59 1011.73 1011.80 1011.67 1011.82 1012.00 1011.92 1011.77 1011.38 1011.12 1010.66 1010.21 1009.80 1009.26 1008.83 1008.23 1007.30 1006.77 1006.51 1005.44 1004.74 1004.39 1003.66 1002.28 1000.95 1000.07 999.06 997.64 996.16 995.06 994.31 994.70 995.08 995.49 996.06
1011.86 1010.95 1010.52 1010.48 1010.61 1010.78 1011.06 1011.31 1011.53 1011.83 1011.48 1011.51 1011.03 1010.55 1010.14 1009.67 1009.12 1008.59 1007.72 1007.17 1006.70 1006.18 1005.65 1005.11 1004.61 1003.28 1001.77 1000.64 1000.07 998.79 997.78 996.42 994.77 994.30 994.38 994.55 995.01 995.57
1011.39 1010.29 1010.08 1010.10 1010.51 1010.78 1011.12 1011.25 1011.22 1011.40 1011.99 1011.38 1010.81 1010.45 1010.02 1009.44 1008.97 1008.18 1007.56 1006.94 1006.54 1006.26 1006.40 1005.13 1005.05 1004.27 1002.89 1001.48 999.92 999.81 999.17 997.17 995.63 994.46 994.30 994.00 994.38 995.14
1010.78 1010.21 1010.06 1010.34 1010.79 1011.04 1011.23 1011.31 1011.33 1011.41 1011.19 1011.03 1010.65 1010.21 1009.72 1009.24 1008.66 1008.11 1007.53 1007.04 1006.83 1006.58 1006.58 1005.90 1005.52 1004.97 1004.06 1002.74 1001.47 999.98 1000.01 998.73 997.34 995.91 994.32 994.16 994.29 993.97
1010.12 1010.34 1010.45 1010.65 1010.87 1011.22 1011.60 1011.80 1011.85 1011.47 1011.60 1011.20 1010.49 1010.07 1009.55 1009.09 1008.54 1008.13 1007.56 1007.19 1007.30 1006.26 1006.07 1005.78 1005.98 1005.48 1004.64 1003.31 1002.24 1001.10 1000.55 999.80 999.01 997.90 996.33 994.71 994.76 995.09
1010.39 1010.61 1010.77 1011.07 1011.35 1011.74 1011.85 1011.84 1011.57 1011.22 1011.01 1010.72 1010.42 1010.07 1009.59 1009.11 1008.61 1008.14 1007.59 1006.94 1006.37 1006.16 1006.21 1005.86 1006.24 1005.63 1004.93 1004.34 1003.56 1002.64 1001.57 1000.60 999.36 998.87 998.25 997.18 996.87 995.89
1010.61 1010.76 1010.91 1011.32 1011.63 1011.90 1011.90 1011.52 1011.28 1011.05 1011.06 1010.88 1010.52 1010.17 1009.73 1009.19 1008.83 1008.32 1007.73 1007.02 1006.59 1006.50 1005.97 1006.90 1006.70 1006.16 1005.77 1005.34 1004.54 1003.68 1002.82 1002.01 1000.51 999.40 997.87 998.38 997.67 997.00
Wind_Speed
5 6 7 7 6 5 6 6 7 9 8 6 4 3 5 6 6 9 10 7 5 10 11 10 11 12 13 14 15 15 15 15 16 16 16 16 16 20
6 6 7 8 6 6 7 6 6 8 10 8 8 8 5 7 9 10 11 8 15 15 14 13 12 13 14 15 16 16 16 16 16 17 17 17 18 18
8 8 9 9 8 8 5 7 8 8 11 9 9 9 8 10 10 10 11 12 11 15 15 13 14 14 15 16 17 17 18 18 18 17 19 19 19 20
9 9 9 8 9 8 9 9 9 9 10 13 12 11 11 10 11 11 11 12 13 11 9 12 15 16 17 18 18 19 19 20 20 19 20 20 21 21
10 10 10 10 10 9 8 9 9 7 9 9 12 12 11 11 11 10 11 12 12 17 18 21 19 17 17 18 21 21 21 21 21 21 21 22 22 24
11 11 11 11 11 10 9 9 9 9 11 11 10 10 11 11 5 8 11 11 12 13 12 13 16 18 21 22 24 24 23 24 24 23 22 23 24 24
12 11 12 10 6 7 8 9 9 10 11 11 12 10 11 8 10 11 13 12 13 13 13 13 13 13 13 16 21 24 26 25 25 24 23 23 23 25
10 11 10 6 9 10 10 11 11 11 11 11 12 11 12 12 12 10 12 13 15 12 13 14 14 15 14 15 19 16 19 20 22 26 25 23 23 24
8 8 9 7 8 9 11 12 12 15 15 10 13 13 13 13 13 10 13 14 15 14 14 16 14 16 16 15 15 14 16 18 21 21 24 25 23 24
3 1 6 10 12 10 8 11 11 11 10 10 10 11 12 12 13 13 14 14 14 14 15 17 13 16 15 16 25 25 26 29 29 28 27 25 22 22
4 4 3 5 9 3 9 10 11 10 6 9 9 11 14 16 16 10 11 11 12 13 14 14 15 16 17 18 17 29 30 30 31 30 29 27 22 20
5 6 9 8 5 7 9 10 10 10 9 11 12 13 16 15 20 13 9 11 12 15 13 14 17 14 13 13 16 14 13 23 29 28 28 27 22 16
5 4 7 15 9 8 9 9 7 7 9 11 12 10 9 10 8 6 9 12 14 15 15 13 13 14 12 16 12 14 13 12 10 14 24 26 24 23
7 5 3 8 8 9 9 2 2 5 9 10 10 9 9 9 9 10 13 13 12 15 16 16 12 14 16 17 17 8 9 10 10 10 12 19 24 27
4 10 13 8 7 10 10 5 6 9 8 9 9 9 8 10 12 13 12 11 13 12 13 14 13 15 14 15 13 9 8 8 10 14 13 16 16 15
6 4 3 1 1 3 7 9 9 6 6 7 8 8 9 10 11 11 11 11 11 12 14 14 15 16 15 11 8 11 11 9 11 12 12 10 12 15
4 5 7 7 7 7 6 5 5 5 6 6 8 8 9 10 10 10 11 10 10 12 12 13 17 16 14 5 6 10 10 11 11 8 8 8 9 11
5 7 7 6 6 5 5 5 5 4 5 6 8 8 9 9 10 11 9 10 10 11 12 13 12 13 13 3 6 10 11 8 9 8 6 8 8 10
8 7 5 5 5 4 5 5 5 5 5 8 7 8 8 9 9 10 9 9 11 11 12 10 9 10 12 12 6 9 13 11 10 3 5 8 7 8
7 5 5 3 3 4 4 5 5 5 5 6 7 6 7 8 9 9 10 10 12 8 10 10 11 10 10 10 8 8 18 12 9 10 4 6 2 10
3 4 4 4 3 3 4 5 5 5 5 7 6 6 7 8 8 9 9 8 8 11 12 10 7 18 8 8 8 9 11 20 14 13 7 1 5 5
2 4 2 2 3 4 5 5 5 4 4 5 4 5 6 7 8 10 10 10 9 10 8 9 9 8 6 8 9 10 11 11 12 16 23 22 5 1
2 3 1 3 3 4 5 5 3 3 3 4 5 5 6 7 8 8 9 10 9 10 9 10 8 6 8 7 9 9 15 13 10 10 14 29 26 25
Wind_Direction
251 254 266 281 274 276 274 277 289 295 299 309 299 298 272 289 331 301 286 269 229 268 267 262 268 275 281 288 289 290 285 280 271 267 269 267 260 248
251 262 262 271 267 251 263 269 266 281 289 299 299 310 291 292 290 291 280 275 258 245 241 246 252 262 270 279 282 280 279 277 273 268 262 259 256 253
252 256 258 265 270 277 261 268 270 280 284 289 304 299 301 263 280 282 284 286 278 220 220 228 238 251 261 268 271 273 275 274 273 265 263 258 254 250
248 250 256 254 250 255 268 264 282 293 285 292 298 293 286 291 280 286 288 293 289 279 211 228 234 240 250 254 257 261 264 266 264 264 260 260 255 249
239 243 254 257 259 269 286 287 275 249 258 265 284 290 297 290 280 275 269 281 273 254 230 235 238 241 244 244 245 248 248 252 255 254 253 254 252 253
240 241 249 254 259 268 265 270 271 273 271 275 273 279 283 286 245 267 276 291 298 300 291 260 260 247 235 236 241 243 241 240 242 244 242 245 248 245
246 247 241 248 268 283 281 284 303 281 287 294 298 291 271 312 307 304 298 303 294 285 290 290 288 280 276 248 247 239 239 241 239 240 239 238 239 241
251 262 262 239 237 234 242 255 273 275 278 281 287 294 293 290 290 300 307 295 296 293 295 288 289 281 281 281 282 262 267 258 234 233 234 234 233 236
266 282 287 272 265 265 221 222 236 234 236 272 279 281 292 290 305 301 286 291 285 293 292 283 280 285 281 280 272 273 258 255 252 238 233 232 226 229
153 17 318 300 286 259 259 269 272 274 245 238 268 286 290 299 298 292 290 288 283 273 265 269 268 277 296 293 286 276 268 262 256 249 242 232 219 217
187 193 207 288 306 206 261 271 279 281 250 200 228 253 256 258 258 285 282 280 285 293 289 285 305 299 298 293 288 276 267 261 252 245 238 231 221 212
187 186 184 209 247 212 257 269 273 279 293 305 290 259 242 251 233 237 254 264 278 283 302 308 305 312 299 292 282 291 281 256 243 235 230 226 213 230
214 217 241 211 185 208 236 266 289 337 292 275 274 283 287 280 277 273 281 290 294 295 306 310 306 292 278 295 275 272 261 266 265 229 223 218 205 212
238 255 111 145 170 201 222 94 4 282 267 275 288 289 300 303 305 312 303 282 284 287 295 300 289 288 288 287 283 271 258 253 250 247 244 207 201 200
252 87 106 134 186 212 226 223 239 249 270 286 290 298 308 309 300 279 283 286 277 288 294 297 290 292 288 284 279 270 274 255 249 245 230 226 193 199
154 173 131 250 246 337 169 208 234 273 305 294 290 301 299 295 298 303 307 308 310 319 314 319 313 310 306 295 306 295 275 255 285 236 213 216 181 199
174 213 212 214 226 219 230 247 265 267 273 291 298 301 302 303 306 314 310 312 321 309 318 328 328 322 311 313 338 323 306 284 251 217 193 188 186 190
226 253 247 244 260 273 270 273 270 234 281 305 295 303 305 309 319 311 320 319 322 318 333 326 326 326 334 270 50 349 337 315 293 191 186 182 182 190
239 254 258 269 262 268 277 286 289 314 325 274 301 302 307 312 316 326 329 328 327 342 324 326 337 340 335 331 314 26 343 340 325 232 200 187 184 187
262 285 277 258 265 268 281 287 302 295 290 298 297 305 313 325 325 334 331 341 337 344 323 336 338 339 328 326 328 332 353 351 348 326 214 191 50 112
281 273 276 275 262 277 285 290 295 292 323 301 298 316 328 326 334 337 332 336 337 334 345 338 333 327 313 320 345 348 354 354 359 4 319 318 145 144
302 279 272 287 281 280 289 284 271 256 279 291 324 325 333 327 339 336 339 335 343 338 5 354 356 343 355 352 351 348 356 352 359 12 26 39 344 234
243 270 219 263 257 259 275 267 262 290 301 319 327 332 334 334 336 335 339 341 0 346 9 14 344 347 358 345 353 358 6 3 354 11 26 21 23 36